When you browse on this site, cookies collect data to enhance your experience and personalize the content and advertising you see.
Visit our Privacy Policy to learn more. By continuing to use the site, you agree to this use of cookies and data.
  • In Hungary
  • List of Countries
  • For 7 days
  • Water Temperature
  • Weather Map
  • News
  • Weather Widgets
  • user-avatar
    Login

    Hourly Weather Albany

    Today, 30 May, Saturday

    Time Temperature Precipitation Wind Pressure Humidity
    00:00 +7°C° 0.2 mm 9 mps 753 mmHg 80%
    01:00 +7°C° 0.2 mm 9 mps 754 mmHg 79%
    02:00 +8°C° 0 mm 10 mps 754 mmHg 74%
    03:00 +8°C° 0 mm 9 mps 755 mmHg 74%
    04:00 +7°C° 0 mm 8 mps 755 mmHg 73%
    05:00 +7°C° 0 mm 8 mps 756 mmHg 73%
    06:00 +8°C° 0.1 mm 7 mps 757 mmHg 74%
    07:00 +9°C° 0.1 mm 7 mps 757 mmHg 76%
    08:00 +9°C° 0.1 mm 6 mps 757 mmHg 78%
    09:00 +9°C° 0.1 mm 6 mps 758 mmHg 75%
    10:00 +10°C° 0.1 mm 6 mps 758 mmHg 73%
    11:00 +11°C° 0.1 mm 6 mps 758 mmHg 71%
    12:00 +12°C° 0.1 mm 7 mps 758 mmHg 68%
    13:00 +12°C° 0.1 mm 7 mps 757 mmHg 64%
    14:00 +13°C° 0.1 mm 8 mps 757 mmHg 61%
    15:00 +12°C° 0.1 mm 8 mps 757 mmHg 63%
    16:00 +12°C° 0.1 mm 8 mps 757 mmHg 66%
    17:00 +11°C° 0.1 mm 7 mps 757 mmHg 68%
    18:00 +11°C° 0.3 mm 8 mps 757 mmHg 71%
    19:00 +12°C° 0.3 mm 8 mps 757 mmHg 74%
    20:00 +12°C° 0.3 mm 9 mps 757 mmHg 77%
    21:00 +12°C° 0.5 mm 9 mps 757 mmHg 80%
    22:00 +13°C° 0.5 mm 9 mps 757 mmHg 83%
    23:00 +13°C° 0.5 mm 9 mps 757 mmHg 86%

    Tomorrow, 31 May, Sunday

    Time Temperature Precipitation Wind Pressure Humidity
    00:00 +13°C° 0.4 mm 9 mps 757 mmHg 86%
    01:00 +13°C° 0.4 mm 9 mps 757 mmHg 86%
    02:00 +13°C° 0.4 mm 8 mps 757 mmHg 86%
    03:00 +13°C° 0.2 mm 8 mps 758 mmHg 86%
    04:00 +13°C° 0.2 mm 8 mps 758 mmHg 86%
    05:00 +14°C° 0.2 mm 7 mps 759 mmHg 86%
    06:00 +14°C° 0.2 mm 7 mps 759 mmHg 85%
    07:00 +14°C° 0.2 mm 7 mps 760 mmHg 84%
    08:00 +14°C° 0.2 mm 7 mps 761 mmHg 84%
    09:00 +14°C° 0.1 mm 7 mps 761 mmHg 80%
    10:00 +15°C° 0.1 mm 7 mps 762 mmHg 77%
    11:00 +15°C° 0.1 mm 6 mps 762 mmHg 73%
    12:00 +16°C° 0 mm 6 mps 762 mmHg 70%
    13:00 +16°C° 0 mm 6 mps 762 mmHg 68%
    14:00 +16°C° 0 mm 6 mps 762 mmHg 65%
    15:00 +16°C° 0 mm 6 mps 762 mmHg 69%
    16:00 +15°C° 0 mm 5 mps 763 mmHg 73%
    17:00 +14°C° 0 mm 4 mps 764 mmHg 77%
    18:00 +13°C° 0 mm 4 mps 764 mmHg 79%
    19:00 +13°C° 0 mm 3 mps 764 mmHg 81%
    20:00 +12°C° 0 mm 3 mps 764 mmHg 82%
    21:00 +13°C° 0 mm 3 mps 765 mmHg 81%
    22:00 +13°C° 0 mm 3 mps 765 mmHg 80%
    23:00 +14°C° 0 mm 2 mps 766 mmHg 78%

    Day after tomorrow, 1 June, Monday

    Time Temperature Precipitation Wind Pressure Humidity
    00:00 +14°C° 0 mm 2 mps 765 mmHg 79%
    01:00 +14°C° 0 mm 2 mps 765 mmHg 79%
    02:00 +14°C° 0 mm 2 mps 765 mmHg 80%
    03:00 +13°C° 0 mm 2 mps 765 mmHg 81%
    04:00 +13°C° 0 mm 2 mps 766 mmHg 82%
    05:00 +13°C° 0 mm 2 mps 766 mmHg 84%
    06:00 +13°C° 0 mm 2 mps 766 mmHg 82%
    07:00 +13°C° 0 mm 2 mps 766 mmHg 80%
    08:00 +14°C° 0 mm 1 mps 766 mmHg 78%
    09:00 +15°C° 0 mm 1 mps 766 mmHg 73%
    10:00 +16°C° 0 mm 1 mps 767 mmHg 69%
    11:00 +18°C° 0 mm 1 mps 767 mmHg 64%
    12:00 +18°C° 0 mm 1 mps 766 mmHg 65%
    13:00 +18°C° 0 mm 1 mps 766 mmHg 66%
    14:00 +17°C° 0 mm 2 mps 766 mmHg 66%
    15:00 +16°C° 0 mm 2 mps 766 mmHg 72%
    16:00 +15°C° 0 mm 2 mps 766 mmHg 77%
    17:00 +15°C° 0 mm 2 mps 766 mmHg 82%
    18:00 +14°C° 0 mm 1 mps 766 mmHg 83%
    19:00 +14°C° 0 mm 1 mps 767 mmHg 83%
    20:00 +14°C° 0 mm 1 mps 767 mmHg 84%
    21:00 +14°C° 0 mm 1 mps 767 mmHg 83%
    22:00 +14°C° 0 mm 1 mps 767 mmHg 82%
    23:00 +14°C° 0 mm 1 mps 767 mmHg 81%

    2 June, Tuesday

    Time Temperature Precipitation Wind Pressure Humidity
    00:00 +14°C° 0 mm 1 mps 767 mmHg 82%
    01:00 +13°C° 0 mm 1 mps 767 mmHg 83%
    02:00 +13°C° 0 mm 2 mps 767 mmHg 83%
    03:00 +12°C° 0 mm 2 mps 767 mmHg 84%
    04:00 +12°C° 0 mm 2 mps 767 mmHg 85%
    05:00 +10°C° 0 mm 2 mps 766 mmHg 86%
    06:00 +10°C° 0 mm 2 mps 767 mmHg 86%
    07:00 +12°C° 0 mm 2 mps 767 mmHg 85%
    08:00 +11°C° 0 mm 3 mps 767 mmHg 85%
    09:00 +13°C° 0 mm 3 mps 767 mmHg 78%
    10:00 +14°C° 0 mm 3 mps 767 mmHg 71%
    11:00 +17°C° 0 mm 3 mps 767 mmHg 64%
    12:00 +18°C° 0 mm 3 mps 766 mmHg 62%
    13:00 +19°C° 0 mm 3 mps 765 mmHg 60%
    14:00 +19°C° 0 mm 3 mps 764 mmHg 58%
    15:00 +18°C° 0 mm 3 mps 764 mmHg 62%
    16:00 +17°C° 0 mm 2 mps 764 mmHg 66%
    17:00 +16°C° 0 mm 2 mps 764 mmHg 70%
    18:00 +16°C° 0 mm 3 mps 765 mmHg 72%
    19:00 +14°C° 0 mm 3 mps 765 mmHg 74%
    20:00 +13°C° 0 mm 3 mps 765 mmHg 76%
    21:00 +13°C° 0 mm 3 mps 765 mmHg 76%
    22:00 +13°C° 0 mm 3 mps 765 mmHg 77%
    23:00 +13°C° 0 mm 3 mps 765 mmHg 77%

    3 June, Wednesday

    Time Temperature Precipitation Wind Pressure Humidity
    00:00 +12°C° 0 mm 3 mps 764 mmHg 76%
    01:00 +12°C° 0 mm 3 mps 764 mmHg 76%
    02:00 +12°C° 0 mm 3 mps 764 mmHg 75%
    03:00 +12°C° 0 mm 3 mps 764 mmHg 75%
    04:00 +12°C° 0 mm 3 mps 764 mmHg 75%
    05:00 +12°C° 0 mm 3 mps 763 mmHg 75%
    06:00 +12°C° 0 mm 3 mps 764 mmHg 75%
    07:00 +12°C° 0 mm 3 mps 764 mmHg 74%
    08:00 +12°C° 0 mm 4 mps 764 mmHg 74%
    09:00 +14°C° 0 mm 4 mps 764 mmHg 68%
    10:00 +17°C° 0 mm 4 mps 763 mmHg 62%
    11:00 +19°C° 0 mm 4 mps 763 mmHg 56%
    12:00 +20°C° 0 mm 3 mps 763 mmHg 54%
    13:00 +21°C° 0 mm 3 mps 762 mmHg 53%
    14:00 +21°C° 0 mm 2 mps 761 mmHg 52%
    15:00 +20°C° 0 mm 2 mps 761 mmHg 56%
    16:00 +19°C° 0 mm 2 mps 761 mmHg 61%
    17:00 +18°C° 0 mm 2 mps 761 mmHg 65%
    18:00 +17°C° 0 mm 2 mps 762 mmHg 64%
    19:00 +17°C° 0 mm 2 mps 762 mmHg 63%
    20:00 +16°C° 0 mm 3 mps 762 mmHg 62%
    21:00 +16°C° 0 mm 2 mps 762 mmHg 63%
    22:00 +16°C° 0 mm 2 mps 762 mmHg 64%
    23:00 +15°C° 0 mm 2 mps 762 mmHg 65%

    4 June, Thursday

    Time Temperature Precipitation Wind Pressure Humidity
    00:00 +15°C° 0 mm 2 mps 762 mmHg 66%
    01:00 +15°C° 0 mm 2 mps 762 mmHg 67%
    02:00 +15°C° 0 mm 2 mps 762 mmHg 68%
    03:00 +15°C° 0.1 mm 2 mps 762 mmHg 70%
    04:00 +15°C° 0.1 mm 1 mps 762 mmHg 72%
    05:00 +15°C° 0.1 mm 1 mps 762 mmHg 73%
    06:00 +15°C° 0 mm 1 mps 762 mmHg 75%
    07:00 +15°C° 0 mm 1 mps 762 mmHg 76%
    08:00 +14°C° 0 mm 2 mps 763 mmHg 78%
    09:00 +16°C° 0 mm 2 mps 763 mmHg 75%
    10:00 +18°C° 0 mm 2 mps 763 mmHg 72%
    11:00 +19°C° 0 mm 2 mps 763 mmHg 69%
    12:00 +19°C° 0.2 mm 2 mps 763 mmHg 70%
    13:00 +19°C° 0.2 mm 3 mps 763 mmHg 72%
    14:00 +19°C° 0.2 mm 3 mps 763 mmHg 74%
    15:00 +18°C° 0 mm 3 mps 763 mmHg 78%
    16:00 +17°C° 0 mm 2 mps 763 mmHg 83%
    17:00 +16°C° 0 mm 2 mps 763 mmHg 87%
    18:00 +15°C° 0 mm 2 mps 764 mmHg 88%
    19:00 +14°C° 0 mm 1 mps 764 mmHg 88%
    20:00 +14°C° 0 mm 1 mps 765 mmHg 88%
    21:00 +13°C° 0 mm 1 mps 765 mmHg 88%
    22:00 +13°C° 0 mm 1 mps 765 mmHg 88%
    23:00 +13°C° 0 mm 1 mps 765 mmHg 89%
    Show more